Location: �bnet
(46.9957°N, 8.4908°E)
Time: 23:41:47
(UTC+00:00)

Cosmos 1818 - Pass Details

Date: 11 May 2021
Orbit: 771 x 802 km, 65.0° (Epoch: 23 June)

Event Time Altitude Azimuth Distance (km) Brightness Sun altitude
Rises 22:25:31 0° 322° (NW) 3,320 7.9 -23.6°
Reaches altitude 10° 22:27:58 10° 320° (NW) 2,387 6.9 -23.7°
Maximum altitude 22:33:27 76° 237° (WSW) 831 3.5 -24.0°
Enters shadow 22:34:14 64° 178° (S) 889 3.5 -24.0°
